DW4435 Weather Reports


Display with metric or nautical units.
time (UTC)temp
F
wind
direction
speed
MPH
gust
MPH
rain 1hr
in
rain 24hr
in
rain mn
in
humidity
%
barometer
mb
20180624222334 92 250 1.0 4.0 0.00 0.27 0.01 58 1011.3
20180624220830 92 221 1.0 7.0 0.00 0.27 0.01 59 1011.0
20180624215331 92 212 2.0 6.0 0.00 0.30 0.01 58 1011.1
20180624213827 92 232 3.0 8.0 0.00 0.30 0.01 59 1010.9
20180624212325 92 250 2.0 7.0 0.00 0.30 0.01 61 1011.0
20180624210828 91 228 2.0 5.0 0.00 0.30 0.01 63 1010.9
20180624205325 92 240 1.0 7.0 0.00 0.32 0.01 60 1010.9
20180624203824 92 304 5.0 12.0 0.00 0.32 0.01 58 1011.1
20180624202320 91 233 3.0 9.0 0.00 0.32 0.01 60 1011.2
20180624200821 91 228 2.0 9.0 0.00 0.32 0.01 62 1011.2
20180624195318 91 295 3.0 10.0 0.00 0.41 0.01 61 1011.2
20180624193818 91 302 3.0 10.0 0.00 0.41 0.01 63 1011.1
20180624192316 91 271 4.0 11.0 0.00 0.41 0.01 60 1011.2
20180624190817 91 248 5.0 10.0 0.00 0.41 0.01 61 1011.2
20180624185315 91 273 3.0 10.0 0.00 0.41 0.01 61 1011.3
20180624183812 91 290 3.0 9.0 0.00 0.41 0.01 61 1011.6
20180624182306 90 293 3.0 8.0 0.00 0.41 0.01 63 1011.7
20180624180805 89 204 4.0 9.0 0.00 0.41 0.01 67 1012.0
20180624175306 90 255 4.0 9.0 0.00 0.41 0.01 66 1012.0
20180624173800 90 301 2.0 9.0 0.00 0.41 0.01 65 1011.9
20180624172300 89 250 4.0 11.0 0.00 0.41 0.01 67 1011.9
20180624170803 89 172 3.0 8.0 0.00 0.41 0.01 67 1011.9
20180624165257 89 298 3.0 11.0 0.00 0.41 0.01 66 1012.2
20180624162251 88 217 2.0 8.0 0.00 0.41 0.01 73 1012.2
20180624160751 88 225 3.0 13.0 0.00 0.41 0.01 72 1012.3
20180624155250 87 159 3.0 8.0 0.00 0.41 0.01 75 1012.4
20180624153745 86 236 3.0 7.0 0.00 0.41 0.01 75 1012.5
20180624152243 86 226 3.0 8.0 0.00 0.41 0.01 73 1012.4
20180624150741 85 215 3.0 11.0 0.00 0.41 0.01 76 1012.4
20180624145239 85 203 4.0 10.0 0.00 0.42 0.01 75 1012.6
20180624143743 85 263 3.0 6.0 0.00 0.42 0.01 76 1012.5
20180624142234 85 277 3.0 7.0 0.00 0.42 0.01 76 1012.5
20180624140733 84 200 3.0 9.0 0.00 0.42 0.01 77 1012.4
20180624135230 84 169 4.0 9.0 0.00 0.42 0.01 78 1012.3
20180624133734 83 269 3.0 8.0 0.00 0.42 0.01 78 1012.3
20180624132227 83 250 2.0 6.0 0.00 0.42 0.01 80 1012.2
20180624130726 82 217 2.0 6.0 0.00 0.42 0.01 81 1012.4
20180624125221 82 222 2.0 5.0 0.00 0.42 0.01 84 1012.4
20180624123719 81 255 2.0 5.0 0.00 0.42 0.01 87 1012.3
20180624122217 80 249 2.0 5.0 0.00 0.42 0.01 90 1012.3
20180624120711 79 212 0.0 2.0 0.00 0.42 0.01 93 1012.2
20180624115209 78 238 0.0 3.0 0.00 0.42 0.01 94 1012.1
20180624113707 78 229 0.0 2.0 0.00 0.42 0.01 97 1012.0
20180624112202 77 222 1.0 2.0 0.00 0.42 0.01 98 1011.9
20180624110659 76 163 0.0 2.0 0.00 0.42 0.01 98 1011.8
20180624105201 75 222 0.0 2.0 0.00 0.42 0.01 99 1011.8
20180624103655 75 223 0.0 0.0 0.00 0.42 0.01 99 1011.6
20180624102154 74 133 0.0 0.0 0.00 0.42 0.01 99 1011.5
20180624100654 74 132 0.0 0.0 0.01 0.42 0.01 99 1011.5
20180624095151 74 179 0.0 0.0 0.01 0.42 0.01 99 1011.4
20180624093650 74 166 0.0 1.0 0.01 0.42 0.01 99 1011.3
20180624092151 74 155 0.0 1.0 0.01 0.42 0.01 99 1011.3
20180624090649 75 210 0.0 1.0 0.00 0.41 0.00 99 1011.1
20180624085148 74 211 0.0 1.0 0.00 0.41 0.00 98 1011.0
20180624083649 74 211 0.0 1.0 0.00 0.41 0.00 98 1011.1
20180624082147 74 211 0.0 2.0 0.00 0.41 0.00 98 1011.1
20180624080645 74 155 0.0 0.0 0.00 0.41 0.00 98 1011.1
20180624075146 74 169 0.0 0.0 0.00 0.41 0.00 98 1011.0
20180624073644 74 150 0.0 0.0 0.00 0.41 0.00 98 1011.0
20180624072142 74 148 0.0 0.0 0.00 0.41 0.00 98 1011.0
20180624070643 74 149 0.0 0.0 0.00 0.41 0.00 98 1011.2
20180624065142 74 150 0.0 0.0 0.00 0.41 0.00 98 1011.2
20180624063636 74 141 0.0 0.0 0.00 0.41 0.00 98 1011.2
20180624062133 74 141 0.0 1.0 0.00 0.41 0.00 98 1011.3
20180624060632 74 125 0.0 1.0 0.00 0.41 0.00 98 1011.3
20180624055132 74 143 0.0 1.0 0.00 0.99 0.00 98 1011.2
20180624053629 74 215 0.0 2.0 0.00 0.99 0.00 98 1011.3
20180624052129 74 205 0.0 2.0 0.00 0.99 0.00 98 1011.2
20180624050629 74 151 0.0 2.0 0.00 0.99 0.00 98 1011.2
20180624045126 74 198 0.0 3.0 0.00 1.89 0.00 98 1011.3
20180624043625 74 163 0.0 2.0 0.00 1.89 0.00 97 1011.3
20180624042125 74 155 0.0 1.0 0.00 1.89 0.00 97 1011.2
20180624040623 74 165 0.0 2.0 0.00 1.89 0.00 97 1011.3
20180624035121 74 155 1.0 3.0 0.00 2.19 1.89 97 1011.3
20180624033623 74 143 1.0 3.0 0.00 2.19 1.89 97 1011.3
20180624032120 74 160 0.0 2.0 0.00 2.19 1.89 97 1011.1
20180624030620 74 219 1.0 2.0 0.00 2.19 1.89 97 1011.0
20180624025119 75 143 1.0 3.0 0.00 2.19 1.89 97 1011.0
20180624023620 75 136 0.0 4.0 0.00 2.19 1.89 97 1010.9
20180624022118 75 165 0.0 2.0 0.00 2.19 1.89 97 1011.1
20180624020617 75 207 0.0 2.0 0.00 2.19 1.89 96 1010.9
20180624015117 75 217 0.0 2.0 0.00 2.19 1.89 96 1010.9
20180624013615 75 165 0.0 2.0 0.00 2.19 1.89 96 1010.9
20180624012116 75 163 0.0 4.0 0.00 2.19 1.89 96 1010.6
20180624010615 76 128 1.0 4.0 0.00 2.19 1.89 96 1010.5
20180624005115 76 111 0.0 2.0 0.00 2.19 1.89 95 1010.4
20180624003615 76 119 0.0 2.0 0.00 2.19 1.89 95 1010.0
20180624002114 76 129 1.0 3.0 0.00 2.19 1.89 94 1009.8
20180624000613 77 136 0.0 1.0 0.00 2.19 1.89 94 1009.3
20180623235112 77 136 0.0 1.0 0.04 2.19 1.89 92 1009.2
20180623233614 78 156 0.0 3.0 0.25 2.19 1.89 91 1009.0
20180623232115 79 183 1.0 5.0 0.26 2.19 1.89 93 1009.4
20180623230613 78 289 0.0 3.0 0.26 2.19 1.89 95 1009.6
20180623225110 79 221 4.0 8.0 0.21 2.14 1.84 92 1009.8